This demonstration page uses our WeatherBlox Daily Observations layout. Learn more.

Left ArrowRight Arrow

31.31129, -92.44514

Hourly Observations for October 4, 2015

Temp ( °F °C ) Dew Point ( °F °C ) Humidity (%) Winds ( mph kmh ) Pressure ( in mb ) Visibility ( mi km ) Precip ( " mm )
12:53 am 00:53 Clear 56 13.3 49 9.4 77 77 N 3 6 29.91 1013 10 16 0.00 0.00
1:53 am 01:53 Clear 54 12.2 49 9.4 83 83 NW 3 6 29.91 1013 10 16 0.00 0.00
2:53 am 02:53 Clear 52 11.1 49 9.4 89 89 NNW 3 6 29.91 1013 10 16 0.00 0.00
3:53 am 03:53 Clear 51 10.6 48 8.9 89 89 NW 5 7 29.91 1013 10 16 0.00 0.00
4:53 am 04:53 Clear 50 10 47 8.3 89 89 NNW 5 7 29.90 1013 10 16 0.00 0.00
5:11 am 05:11 Mostly Cloudy 51 10.6 48 8.9 89 89 WNW 6 9 29.91 1013 10 16 0.00 0.00
5:53 am 05:53 Cloudy 52 11.1 49 9.4 89 89 NW 6 9 29.93 1013 10 16 0.00 0.00
6:53 am 06:53 Cloudy 53 11.7 49 9.4 86 86 NW 6 9 29.95 1014 10 16 0.00 0.00
7:53 am 07:53 Cloudy 54 12.2 49 9.4 83 83 NNW 7 11 29.97 1015 10 16 0.00 0.00
8:53 am 08:53 Cloudy 56 13.3 49 9.4 77 77 NW 9 15 29.98 1015 10 16 0.00 0.00
9:53 am 09:53 Cloudy 58 14.4 49 9.4 72 72 NNW 9 15 30.00 1016 10 16 0.00 0.00
10:53 am 10:53 Cloudy 59 15 49 9.4 69 69 NNW 12 19 30.00 1016 10 16 0.00 0.00
11:53 am 11:53 Cloudy 59 15 50 10 72 72 NNW 10 17 29.99 1016 10 16 0.00 0.00
12:53 pm 12:53 Cloudy 61 16.1 50 10 67 67 N 8 13 29.98 1015 10 16 0.00 0.00
1:53 pm 13:53 Cloudy 62 16.7 51 10.6 67 67 NNW 8 13 29.97 1015 10 16 0.00 0.00
2:53 pm 14:53 Cloudy 64 17.8 51 10.6 63 63 N 13 20 29.95 1014 10 16 0.00 0.00
3:53 pm 15:53 Mostly Cloudy 66 18.9 52 11.1 61 61 N 12 19 29.93 1013 10 16 0.00 0.00
4:41 pm 16:41 Partly Cloudy 67 19.4 52 11.1 59 59 N 9 15 29.91 1013 10 16 0.00 0.00
4:53 pm 16:53 Mostly Sunny 66 18.9 52 11.1 61 61 N 10 17 29.92 1013 10 16 0.00 0.00
5:53 pm 17:53 Sunny 67 19.4 53 11.7 61 61 VRB 5 7 29.92 1013 10 16 0.00 0.00
6:53 pm 18:53 Clear 62 16.7 53 11.7 73 73 NE 5 7 29.93 1014 10 16 0.00 0.00
7:53 pm 19:53 Clear 60 15.6 53 11.7 78 78 NNE 3 6 29.95 1014 10 16 0.00 0.00
8:53 pm 20:53 Clear 56 13.3 52 11.1 87 87 NW 3 6 29.98 1015 10 16 0.00 0.00
9:53 pm 21:53 Clear 58 14.4 53 11.7 84 84 Calm 29.99 1016 9 14 0.00 0.00
10:53 pm 22:53 Clear 57 13.9 53 11.7 87 87 N 5 7 30.00 1016 8 13 0.00 0.00
11:53 pm 23:53 Clear 57 13.9 54 12.2 90 90 NNE 5 7 29.99 1016 8 13 0.00 0.00

Powered by AerisWeather